COSMOS 1275 DEB, 12745

Orbit data source: Space-Track

COSMOS 1275 DEB, 12745 is space debris in LEO originally from a launch on Thu, 04 Jun 1981 UTC launched from the Plesetsk Missile And Space Complex (PKMTR). Debris objects in space refer to the collection of defunct objects orbiting the Earth. Examples of debris include non-operational satellites, rocket bodies, and fragments generated from explosions, collisions, or faulty payload assembly.

Loading next visibility...
Identifier
12745, 1981-053CN
Orbit
LEO
Country
Flag of CISCIS
Related business
Manufacturer
Unknown
Mission
Spacecraft
Bus & Motor
Unknown
Mass
Unknown
Launch date (UTC)
1981-06-04 (45 years ago)
Launch vehicle
Unknown
Launch site
Plesetsk Missile And Space Complex (PKMTR)
Object type
Payload
Rocket body
Debris
Shape & HBR
Unknown shape, 0.1 m
Radar Cross Section
Medium (>0.1 m² and <1 m²)

Expand to show TLE details & history
Last TLE update: 7 hours ago

TLE from 7 hours ago
0 COSMOS 1275 DEB
1 12745U 81053CN  26255.94293492  .00000348  00000-0  25827-3 0  9990
2 12745  83.1351  64.8607 0047152  42.2594  82.2609 13.91846148271280
Epoch: 2026-09-12T22:37Z
TLE epoch observation values (Epoch: 2026-09-12T22:37:49.577Z)
Latitude
54.46074°
Longitude
-96.19219°
Altitude
926.682 km
Speed
7.396 km/s
True Right ascension
15h 40m 50s
True Declination
54° 18' 06"
Sunlit
Object was in daylight at epoch
Visualization orbit readout
Latitude
Unknown
Longitude
Unknown
Altitude
Unknown
Speed
Unknown
Apparent Right ascension
Unknown
Apparent Declination
Unknown
Sunlit
N/A
Visualization observer readout
Local Sidereal Time
22:00:35
Azimuth
Unknown
Elevation
Unknown
Doppler factor
Unknown
Orbital elements
Apogee altitude
953.695 km
Perigee altitude
884.878 km
Semi-major axis
7,297.423 km
Eccentricity
0.00472
Inclination
83.1351°
RAAN
64.8607°
Arg. of periapsis
42.2594°
True anomaly
82.79672°
Mean anomaly
82.2609°
Eccentric anomaly
82.52877°
Mean motion
3.48168 °/min
Orbital period
103.4 mins
BSTAR
0.00025827
Loading maneuver chart data...
Computing Atmospheric mass density...
Loading historical data...
Loading historical data...
Loading historical data...
Loading historical data...
Loading historical data...
Loading historical data...
Loading historical data...

Documentation

Showing up to 5 results
|